Devils Lake, ND

1:28 PM CST on February 25, 2017 (GMT -0600)
Devils Lake Municipal

Weather History for KDVL - March, 2014

Change the Weather History Date:

Monday, March 31, 2014

  Actual Average Record
Temperature  
Mean Temperature 12 °F -  
Max Temperature 17 °F 41 °F 71 °F (1963)
Min Temperature 8 °F 20 °F -5 °F (1969)
Degree Days  
Heating Degree Days 52    
Moisture  
Dew Point 2 °F    
Average Humidity 66    
Maximum Humidity 73    
Minimum Humidity 57    
Precipitation  
Precipitation 0.00 in - - ()
Sea Level Pressure  
Sea Level Pressure 29.95 in    
Wind  
Wind Speed 30 mph (NNE)    
Max Wind Speed 41 mph    
Max Gust Speed 46 mph    
Visibility 1 miles    
Events      
Averages and records for this station are not official NWS values.
T = Trace of Precipitation, MM = Missing Value Source: NWS Daily Summary

Daily Weather History Graph

Daily Weather History Graph

Search for Another Location

Airport or City:

Trip Planner

Search our weather history database for the weather conditions in past years. The results will help you decide how hot, cold, wet, or windy it might be!

Date:

Astronomy

Mar. 31, 2014 Rise Set
Actual Time 7:15 AM CDT 8:04 PM CDT
Civil Twilight 6:44 AM CDT 8:36 PM CDT
Nautical Twilight 6:06 AM CDT 9:13 PM CDT
Astronomical Twilight 5:27 AM CDT 9:53 PM CDT
Moon 7:35 AM CDT (3/31) 9:32 PM CDT (3/31)
Length of Visible Light 13h 51m
Length of Day
12h 48m
New Moon, 1% of the Moon is Illuminated
Mar 31
New Moon
Apr 7
First Quarter
Apr 15
Full
Apr 22
Last Quarter
Apr 29
New

Hourly Weather History & Observations

Time (CDT) Temp. Windchill Dew Point Humidity Pressure Visibility Wind Dir Wind Speed Gust Speed Precip Events Conditions
12:15 AM 17.6 °F -1.0 °F 8.6 °F 68% 29.99 in 2.5 mi NNE 26.5 mph 38.0 mph N/A   Overcast
12:35 AM 17.6 °F -1.3 °F 6.8 °F 63% 29.99 in 1.8 mi NNE 27.6 mph 34.5 mph N/A   Overcast
12:55 AM 17.6 °F -1.6 °F 6.8 °F 63% 29.98 in 1.8 mi NNE 28.8 mph 38.0 mph N/A   Overcast
1:15 AM 15.8 °F -3.1 °F 6.8 °F 68% 29.98 in 2.0 mi NNE 25.3 mph 38.0 mph N/A   Overcast
1:35 AM 15.8 °F -3.4 °F 6.8 °F 68% 29.98 in 2.5 mi NNE 26.5 mph 32.2 mph N/A   Overcast
1:55 AM 15.8 °F -4.4 °F 8.6 °F 73% 29.97 in 3.0 mi NNE 29.9 mph 35.7 mph N/A   Overcast
2:15 AM 15.8 °F -4.1 °F 6.8 °F 68% 29.97 in 2.0 mi NNE 28.8 mph 35.7 mph N/A   Overcast
2:35 AM 15.8 °F -2.3 °F 6.8 °F 68% 29.98 in 1.8 mi NNE 23.0 mph 29.9 mph N/A   Overcast
2:55 AM 15.8 °F -2.7 °F 6.8 °F 68% 29.98 in 2.0 mi NNE 24.2 mph 33.4 mph N/A   Overcast
3:15 AM 14.0 °F -5.1 °F 6.8 °F 73% 29.96 in 1.2 mi NNE 24.2 mph 34.5 mph N/A   Overcast
3:35 AM 14.0 °F -5.1 °F 5.0 °F 67% 29.96 in 1.5 mi NE 24.2 mph 36.8 mph N/A   Overcast
3:55 AM 12.2 °F -8.9 °F 5.0 °F 73% 29.95 in 1.0 mi NNE 28.8 mph 35.7 mph N/A   Overcast
4:15 AM 12.2 °F -8.2 °F 3.2 °F 67% 29.95 in 0.8 mi NNE 26.5 mph 36.8 mph N/A   Overcast
4:35 AM 12.2 °F -9.3 °F 3.2 °F 67% 29.94 in 1.0 mi NNE 29.9 mph 35.7 mph N/A   Overcast
4:55 AM 12.2 °F -9.3 °F 3.2 °F 67% 29.93 in 0.8 mi NNE 29.9 mph 38.0 mph N/A   Overcast
5:15 AM 12.2 °F -8.6 °F 3.2 °F 67% 29.93 in 0.8 mi NNE 27.6 mph 41.4 mph N/A   Overcast
5:35 AM 10.4 °F -10.7 °F 1.4 °F 67% 29.93 in 0.8 mi NNE 26.5 mph 40.3 mph N/A   Overcast
5:55 AM 10.4 °F -12.0 °F 1.4 °F 67% 29.94 in 0.8 mi NNE 31.1 mph 40.3 mph N/A   Overcast
6:15 AM 10.4 °F -12.0 °F 1.4 °F 67% 29.94 in 0.5 mi NNE 31.1 mph 40.3 mph N/A   Overcast
6:35 AM 10.4 °F -11.7 °F 1.4 °F 67% 29.94 in 0.5 mi NNE 29.9 mph 39.1 mph N/A   Overcast
6:55 AM 10.4 °F -12.7 °F 1.4 °F 67% 29.94 in 0.5 mi NNE 33.4 mph 39.1 mph N/A   Overcast
7:15 AM 10.4 °F -11.4 °F 1.4 °F 67% 29.95 in 0.2 mi NNE 28.8 mph 38.0 mph N/A   Overcast
7:35 AM 10.4 °F -11.4 °F 1.4 °F 67% 29.96 in 0.2 mi NNE 28.8 mph 32.2 mph N/A   Overcast
7:55 AM 10.4 °F -11.7 °F 1.4 °F 67% 29.96 in 0.2 mi NNE 29.9 mph 35.7 mph N/A   Overcast
8:15 AM 10.4 °F -11.4 °F 1.4 °F 67% 29.96 in 0.2 mi NNE 28.8 mph 38.0 mph N/A   Overcast
8:35 AM 10.4 °F -11.4 °F 1.4 °F 67% 29.94 in 0.2 mi NNE 28.8 mph 38.0 mph N/A   Overcast
8:55 AM 10.4 °F -13.8 °F 1.4 °F 67% 29.93 in 0.2 mi NNE 38.0 mph 43.7 mph N/A   Overcast
9:15 AM 10.4 °F -13.0 °F 1.4 °F 67% 29.93 in 0.2 mi NNE 34.5 mph 42.6 mph N/A   Overcast
9:35 AM 10.4 °F -13.0 °F 1.4 °F 67% 29.92 in 0.2 mi North 34.5 mph 43.7 mph N/A   Overcast
9:55 AM 10.4 °F -14.1 °F 1.4 °F 67% 29.93 in 0.2 mi North 39.1 mph 43.7 mph N/A   Overcast
10:15 AM 10.4 °F -13.5 °F 1.4 °F 67% 29.94 in 0.2 mi NNE 36.8 mph 42.6 mph N/A   Overcast
10:35 AM 8.6 °F -14.5 °F -0.4 °F 67% 29.95 in 0.2 mi NNE 31.1 mph 43.7 mph N/A   Overcast
10:55 AM 8.6 °F -15.7 °F -0.4 °F 67% 29.95 in 0.2 mi North 35.7 mph 41.4 mph N/A   Overcast
11:15 AM 8.6 °F -16.3 °F -0.4 °F 67% 29.94 in 0.2 mi North 38.0 mph 43.7 mph N/A   Overcast
11:35 AM 8.6 °F -16.3 °F 1.4 °F 73% 29.93 in 0.2 mi NNE 38.0 mph 42.6 mph N/A   Overcast
11:55 AM 8.6 °F -15.1 °F 1.4 °F 73% 29.92 in 0.2 mi North 33.4 mph 43.7 mph N/A   Overcast
12:15 PM 10.4 °F -14.6 °F 1.4 °F 67% 29.91 in 0.2 mi North 41.4 mph 44.9 mph N/A   Overcast
12:35 PM 10.4 °F -13.0 °F 1.4 °F 67% 29.90 in 0.2 mi North 34.5 mph 43.7 mph N/A   Overcast
12:55 PM 10.4 °F -13.2 °F 1.4 °F 67% 29.91 in 0.2 mi North 35.7 mph 46.0 mph N/A   Overcast
1:15 PM 10.4 °F -13.2 °F 1.4 °F 67% 29.91 in 0.2 mi NNE 35.7 mph 42.6 mph N/A   Overcast
1:35 PM 10.4 °F -12.7 °F 1.4 °F 67% 29.92 in 0.2 mi North 33.4 mph 41.4 mph N/A   Overcast
1:55 PM 10.4 °F -12.7 °F 1.4 °F 67% 29.92 in 0.2 mi North 33.4 mph 41.4 mph N/A   Overcast
2:15 PM 10.4 °F -12.0 °F 1.4 °F 67% 29.92 in 0.2 mi North 31.1 mph 42.6 mph N/A   Overcast
2:35 PM 10.4 °F -13.2 °F 1.4 °F 67% 29.92 in 0.2 mi North 35.7 mph 41.4 mph N/A   Overcast
2:55 PM 10.4 °F -13.0 °F 1.4 °F 67% 29.91 in 0.2 mi North 34.5 mph 40.3 mph N/A   Overcast
3:15 PM 10.4 °F -13.0 °F 1.4 °F 67% 29.90 in 0.2 mi North 34.5 mph 40.3 mph N/A   Overcast
3:35 PM 10.4 °F -13.5 °F 1.4 °F 67% 29.90 in 0.2 mi North 36.8 mph 41.4 mph N/A   Overcast
3:55 PM 10.4 °F -13.5 °F 1.4 °F 67% 29.89 in 0.2 mi North 36.8 mph 44.9 mph N/A   Overcast
4:15 PM 10.4 °F -13.2 °F 1.4 °F 67% 29.89 in 0.2 mi North 35.7 mph 41.4 mph N/A   Overcast
4:35 PM 10.4 °F -13.2 °F 1.4 °F 67% 29.90 in 0.2 mi North 35.7 mph 41.4 mph N/A   Overcast
4:55 PM 12.2 °F -10.8 °F 1.4 °F 62% 29.90 in 0.2 mi North 35.7 mph 43.7 mph N/A   Overcast
5:15 PM 12.2 °F -10.2 °F 3.2 °F 67% 29.92 in 0.5 mi North 33.4 mph 40.3 mph N/A   Overcast
5:35 PM 12.2 °F -9.9 °F 3.2 °F 67% 29.92 in 0.5 mi North 32.2 mph 38.0 mph N/A   Overcast
5:55 PM 12.2 °F -8.2 °F 3.2 °F 67% 29.94 in 0.5 mi North 26.5 mph 33.4 mph N/A   Overcast
6:15 PM 12.2 °F -9.9 °F 3.2 °F 67% 29.95 in 1.2 mi North 32.2 mph 35.7 mph N/A   Overcast
6:35 PM 12.2 °F -9.3 °F 3.2 °F 67% 29.97 in 1.2 mi North 29.9 mph 35.7 mph N/A   Overcast
6:55 PM 12.2 °F -9.3 °F 3.2 °F 67% 29.98 in 1.8 mi North 29.9 mph 35.7 mph N/A   Overcast
7:15 PM 14.0 °F -5.5 °F 3.2 °F 62% 29.99 in 2.5 mi North 25.3 mph 32.2 mph N/A   Overcast
7:35 PM 12.2 °F -9.3 °F 1.4 °F 62% 29.99 in 2.0 mi North 29.9 mph 34.5 mph N/A   Overcast
7:55 PM 12.2 °F -9.6 °F 1.4 °F 62% 29.99 in 1.2 mi North 31.1 mph 40.3 mph N/A   Overcast
8:15 PM 12.2 °F -9.9 °F 1.4 °F 62% 29.99 in 2.0 mi North 32.2 mph 36.8 mph N/A   Overcast
8:35 PM 12.2 °F -8.6 °F 1.4 °F 62% 30.00 in 2.5 mi North 27.6 mph 36.8 mph N/A   Overcast
8:55 PM 12.2 °F -8.6 °F 1.4 °F 62% 30.00 in 4.0 mi North 27.6 mph 33.4 mph N/A   Overcast
9:15 PM 12.2 °F -9.3 °F 1.4 °F 62% 29.99 in 3.0 mi North 29.9 mph 38.0 mph N/A   Overcast
9:35 PM 12.2 °F -8.9 °F 1.4 °F 62% 30.00 in 5.0 mi North 28.8 mph 34.5 mph N/A   Overcast
9:55 PM 12.2 °F -9.3 °F 1.4 °F 62% 29.99 in 4.0 mi North 29.9 mph 38.0 mph N/A   Overcast
10:15 PM 12.2 °F -9.3 °F -0.4 °F 57% 29.99 in 4.0 mi North 29.9 mph 35.7 mph N/A   Overcast
10:35 PM 12.2 °F -8.2 °F -0.4 °F 57% 29.99 in 5.0 mi North 26.5 mph 35.7 mph N/A   Mostly Cloudy
10:55 PM 12.2 °F -8.9 °F -0.4 °F 57% 29.99 in 5.0 mi North 28.8 mph 35.7 mph N/A   Clear
11:15 PM 10.4 °F -9.9 °F -0.4 °F 62% 29.99 in 5.0 mi North 24.2 mph 32.2 mph N/A   Clear
11:35 PM 10.4 °F -9.9 °F -0.4 °F 62% 30.00 in 8.0 mi North 24.2 mph 32.2 mph N/A   Clear
11:55 PM 10.4 °F -9.5 °F -0.4 °F 62% 30.00 in 6.0 mi North 23.0 mph 32.2 mph N/A   Clear